DMSP 5D-2 F13 DEB, 42263

Orbit data source: Space-Track

DMSP 5D-2 F13 DEB, 42263 is space debris in SSO originally from a launch on Fri, 24 Mar 1995 UTC launched from the Air Force Western Test Range (AFWTR). Debris objects in space refer to the collection of defunct objects orbiting the Earth. Examples of debris include non-operational satellites, rocket bodies, and fragments generated from explosions, collisions, or faulty payload assembly.

Loading next visibility...
Identifier
42263, 1995-015GD
Orbit
SSO
Country
Flag of USUS
Related business
Manufacturer
Unknown
Mission
Spacecraft
Bus & Motor
Unknown
Mass
Unknown
Launch date (UTC)
1995-03-24 (31 years ago)
Launch vehicle
Unknown
Launch site
Air Force Western Test Range (AFWTR)
Object type
Payload
Rocket body
Debris
Shape & HBR
Unknown shape, 0.1 m
Radar Cross Section
Small (<0.1 m²)

Expand to show TLE details & history
Last TLE update: 20 hours ago

TLE from 20 hours ago
0 DMSP 5D-2 F13 DEB
1 42263U 95015GD  25297.05522011  .00002586  00000-0  17196-2 0  9995
2 42263  98.7507 155.2543 0115878 321.5432  37.7515 13.98907347535170
Epoch: 2025-10-24T01:19Z
TLE epoch observation values (Epoch: 2025-10-24T01:19:31.017Z)
Latitude
-0.00008°
Longitude
102.66946°
Altitude
834.163 km
Speed
7.47 km/s
True Right ascension
10h 21m 01s
True Declination
0° 00' 00"
Sunlit
Object was in daylight at epoch
Visualization orbit readout
Latitude
Unknown
Longitude
Unknown
Altitude
Unknown
Speed
Unknown
Apparent Right ascension
Unknown
Apparent Declination
Unknown
Sunlit
N/A
Visualization observer readout
Local Sidereal Time
16:55:39
Azimuth
Unknown
Elevation
Unknown
Doppler factor
Unknown
Orbital elements
Apogee altitude
979.047 km
Perigee altitude
810.493 km
Semi-major axis
7,272.907 km
Eccentricity
0.01159
Inclination
98.7507°
RAAN
155.2543°
Arg. of periapsis
321.5432°
True anomaly
38.57385°
Mean anomaly
37.7515°
Eccentric anomaly
38.16173°
Mean motion
3.4993 °/min
Orbital period
102.88 mins
BSTAR
0.0017196
Loading maneuver chart data...
Computing Atmospheric mass density...

Documentation

Showing up to 5 results
|